Find Starlink 31753

NORAD ID: 59484 Int'l Des: 2024-071 Owner: SPXS Country: US Constellation: starlink operational
LEOCIRCULAR

实时位置

正在加载3D地球...

关于 Starlink 31753

正在加载描述...

即将过境

Passes for default location (London). Set your location on the main map for personalized predictions.

高度历史

Loading altitude history...

两行轨道根数

1 59484U 24071A 26121.18793512 -.00001264 00000-0 -36424-4 0 9990
2 59484 43.0017 43.3395 0000670 323.0651 37.0154 15.27589896116230
Epoch: May 1, 2026 • Age: 7 hours

当前状态

高度 484.6 km
速度 7.63 km/s
星下点 33.08°N, 148.22°E
发射日期 Apr 13, 2024
运行时间 2 years
类型 internet

技术详情

分类 Payload
质量 730.00 kg
干质量 700.00 kg
总质量 730.00 kg
长度 0.30 m
直径 4.10 m
跨度 29.00 m
形状 Box + pan
制造商 SPXS
平台类型 Starlink V2M
阶段状态 In Orbit
所有者/国家 SPXS/US

Most Searched